Hourly Data Report for April 23, 2017

OTTAWA INTL A
ONTARIO

45°19'00.000" N
75°40'00.000" W
114.90 m
6106001
71628
YOW

Download Data

Hourly Data (April 2017)
Hourly Data Report for April 23, 2017
TIME
LST
Temp Definition
°C
Dew Point Definition
°C
Rel Hum Definition
%
Precip. Amount Definition
mm

Wind Dir Definition
10's deg

Wind Spd Definition
km/h
Visibility Definition
km
Stn Press Definition
kPa
Hmdx Definition


Wind Chill Definition


Weather Definition


00:00 3.0 -1.0 75   33 5 24.1 100.50     LegendNANA
01:00 1.1 -0.4 90   36 2 24.1 100.46     Clear
02:00 0.6 0.0 96   36 3 24.1 100.42     LegendNANA
03:00 -0.3 -0.4 99   22 7 24.1 100.42   -3 LegendNANA
04:00 -0.7 -0.8 99   19 4 24.1 100.41   -2 Clear
05:00 0.3 0.2 99   22 7 24.1 100.44     LegendNANA
06:00 1.7 0.8 94   20 5 24.1 100.47     LegendNANA
07:00 4.7 2.2 84   19 5 24.1 100.48     Mainly Clear
08:00 8.6 2.6 66   20 14 24.1 100.47     LegendNANA
09:00 11.6 2.1 52   22 22 24.1 100.42     LegendNANA
10:00 14.4 2.1 43   22 22 24.1 100.36     Mostly Cloudy
11:00 16.0 2.5 40   20 21 24.1 100.31     LegendNANA
12:00 17.1 2.4 37   20 28 24.1 100.25     LegendNANA
13:00 17.9 1.9 34   22 32 24.1 100.15     Cloudy
14:00 18.4 2.0 33   22 30 24.1 100.03     LegendNANA
15:00 18.9 2.0 32   19 30 24.1 99.95     LegendNANA
16:00 17.8 1.4 33   20 28 24.1 99.90     Mostly Cloudy
17:00 16.5 2.6 39   20 24 24.1 99.93     LegendNANA
18:00 13.9 0.2 39   35 35 24.1 100.14     LegendNANA
19:00 11.2 2.5 55   34 18 24.1 100.32     Mostly Cloudy
20:00 9.8 2.2 59   33 25 24.1 100.45     LegendNANA
21:00 7.6 0.8 62   34 21 24.1 100.57     LegendNANA
22:00 6.5 -0.2 62   35 26 24.1 100.66     Mostly Cloudy
23:00 5.4 -0.9 64   33 26 24.1 100.69     LegendNANA

Notes on Data Quality.

Legend

  • E = Estimated
  • M = Missing
  • NA = Not Available*
  • [empty] = Indicates an unobserved value
Date modified: